This demonstration page uses our WeatherBlox Daily Observations layout. Learn more.

Left ArrowRight Arrow

38.88101, -77.10428

Hourly Observations for July 10, 2021

Temp ( °F °C ) Dew Point ( °F °C ) Humidity (%) Winds ( mph kmh ) Pressure ( in mb ) Visibility ( mi km ) Precip ( " mm )
12:06 am 00:06 Cloudy 76 24.4 71 21.7 85 85 SSW 8 13 29.98 1015 10 16 N/A
12:52 am 00:52 Mostly Cloudy 74 23.3 71 21.7 91 91 SW 6 9 29.97 1015 10 16 N/A
1:52 am 01:52 Mostly Cloudy 73 22.8 71 21.7 94 94 W 5 7 29.96 1015 10 16 N/A
2:52 am 02:52 Mostly Cloudy 71 21.7 64 17.8 79 79 NW 9 15 29.97 1015 10 16 N/A
3:52 am 03:52 Mostly Cloudy 73 22.8 62 16.7 69 69 NNW 8 13 29.96 1015 10 16 N/A
4:52 am 04:52 Mostly Cloudy 71 21.7 62 16.7 73 73 N 6 9 29.97 1015 10 16 N/A
5:52 am 05:52 Partly Cloudy 71 21.7 61 16.1 71 71 N 8 13 30.00 1016 10 16 N/A
6:52 am 06:52 Partly Cloudy 71 21.7 61 16.1 71 71 NNW 10 17 30.01 1016 10 16 N/A
7:52 am 07:52 Mostly Cloudy 72 22.2 60 15.6 66 66 NW 9 15 30.03 1017 10 16 N/A
8:52 am 08:52 Mostly Cloudy 73 22.8 60 15.6 64 64 NW 12 19 30.03 1017 10 16 N/A
9:52 am 09:52 Mostly Cloudy 75 23.9 59 15 58 58 undefined N/A 30.03 1017 10 16 N/A
10:52 am 10:52 Mostly Cloudy 76 24.4 59 15 56 56 WNW 7 11 30.05 1018 10 16 N/A
11:52 am 11:52 Mostly Cloudy 79 26.1 61 16.1 54 54 NW 8 13 30.06 1018 10 16 N/A
12:52 pm 12:52 Mostly Cloudy 80 26.7 61 16.1 52 52 WNW 12 19 30.06 1018 10 16 N/A
1:52 pm 13:52 Mostly Cloudy 81 27.2 62 16.7 53 53 WNW 12 19 30.04 1017 10 16 N/A
2:52 pm 14:52 Cloudy 82 27.8 62 16.7 51 51 VRB 7 11 30.03 1017 10 16 N/A
3:52 pm 15:52 Cloudy 83 28.3 63 17.2 51 51 N 9 15 30.02 1017 10 16 N/A
4:52 pm 16:52 Cloudy 83 28.3 61 16.1 48 48 N 15 24 30.01 1016 10 16 N/A
5:52 pm 17:52 Mostly Cloudy 83 28.3 61 16.1 48 48 N 12 19 30.00 1016 10 16 N/A
6:52 pm 18:52 Mostly Cloudy 81 27.2 61 16.1 51 51 N 7 11 30.00 1016 10 16 N/A
7:52 pm 19:52 Mostly Cloudy 80 26.7 59 15 49 49 N 5 7 30.01 1016 10 16 N/A
8:52 pm 20:52 Mostly Cloudy 81 27.2 57 13.9 44 44 N N/A 30.02 1017 10 16 N/A
9:52 pm 21:52 Mostly Cloudy 80 26.7 61 16.1 52 52 ESE 5 7 30.04 1017 10 16 N/A
10:52 pm 22:52 Cloudy 79 26.1 63 17.2 58 58 ESE 7 11 30.05 1018 10 16 N/A
11:52 pm 23:52 Cloudy 77 25 63 17.2 62 62 SSE 6 9 30.06 1018 10 16 N/A

Powered by AerisWeather